Location: ???????????
(54.6970°N, 39.1477°E)
Time: 02:20:12
(UTC+00:00)

SL-16 R/B - Pass Details

Date: 19 May 2025
Orbit: 841 x 844 km, 71.0° (Epoch: 13 June)

Event Time Altitude Azimuth Distance (km) Brightness Sun altitude
Rises 19:14:03 0° 326° (NW) 3,416 7.6 -10.7°
Reaches altitude 10° 19:16:36 10° 332° (NNW) 2,478 6.3 -10.8°
Maximum altitude 19:22:05 47° 46° (NE) 1,118 3.0 -11.2°
Drops below altitude 10° 19:27:32 10° 120° (ESE) 2,466 4.1 -11.6°
Enters shadow 19:27:34 10° 120° (ESE) 2,480 4.1 -11.6°
